Location: Unspecified
(43.4680°N, 87.1740°E)
Time: 05:35:44
(UTC+00:00)

SL-4 R/B - Pass Details

Date: 17 April 2021
Orbit: 427 x 663 km, 51.6° (Epoch: 16 May)

Event Time Altitude Azimuth Distance (km) Brightness Sun altitude
Rises 22:13:29 0° 301° (WNW) 2,999 5.5 -12.7°
Reaches altitude 10° 22:15:51 10° 300° (WNW) 2,086 4.7 -12.3°
Maximum altitude 22:20:41 78° 215° (SW) 674 2.3 -11.6°
Drops below altitude 10° 22:25:23 10° 130° (SE) 2,024 5.2 -10.8°
Sets 22:27:39 0° 129° (SE) 2,903 6.1 -10.4°
